{"data":{"norad_id":65680,"intl_designator":"2025-212E","name":"STARLINK-35070","alt_names":[],"object_type":"PAYLOAD","status":"ACTIVE","operator":null,"country":"US","launch_date":"2025-09-21","launch_site_code":"AFETR","launch_vehicle":null,"mission":null,"orbit_class":"UNKNOWN","rcs_meters":null,"size_class":null,"mass_kg":null,"dimensions":null,"purposes":["comms"],"wikipedia_slug":null,"has_3d_model":false,"image_url":null,"decayed_at":null,"tle_current":{"epoch":"2026-05-24T22:48:13.040352Z","epoch_age_seconds":79417,"freshness":"FRESH","line1":"1 65680U 25212E   26144.95015093  .00021961  00000+0  75124-3 0  9996","line2":"2 65680  53.1616 351.1466 0000977  91.2236 268.8877 15.30206404 38924","mean_motion":15.30206404,"eccentricity":9.77e-5,"inclination_deg":53.1616,"raan_deg":351.1466,"arg_perigee_deg":91.2236,"mean_anomaly_deg":268.8877,"bstar":0.00075124,"rev_number":3892,"period_min":94.104951870271,"perigee_km":474.52637766729,"apogee_km":475.86551892539,"semimajor_km":6853.3329482963,"source":"CELESTRAK","updated_at":"2026-05-25T13:38:20.894195Z"}}}